[[{"header":{"parameterUnit":"m.s-1","parameterCategory":1,"la1":30.2991,"la2":30.254,"lo1":-89.0895,"lo2":-89.0444,"dy":0.0017,"dx":0.0017,"nx":28,"ny":28,"refTime":"2025-05-18T21:00:00:Z","depth":0,"parameterNumber":2,"parameterNumberName":"U-component_of_WINDS"},"data":[0,0,0,0,0,0,0,0,0,0,0,0,0,0,0,0,0,0,0,0,0,0,0,0,0,0,0,0,0,0,0,0,0,0,0,0,0,0,0,0,0,0,0,0,0,0,0,0,0,0,0,0,0,0,0,0,0,0,0.0664,0.0663,0,0.0557,0.0556,0.0555,0.0466,0.0465,0.0464,0.0463,0.0352,0.035,0.0348,0,0,0,0,0,0,0,0,0,0,0,0,0,0.079,0.0788,0.0664,0.0663,0.0662,0.0557,0.0556,0.0554,0.0466,0.0465,0.0464,0.0463,0.0352,0.035,0.0347,0,0,0,0,0,0,0,0,0,0,0,0,0,0.0714,0.0787,0.0664,0.0605,0.0599,0.0558,0.0556,0.0554,0.0467,0.0465,0.0464,0.0463,0.0353,0.035,0.0347,0.0355,0,0,0.0337,0.0336,0,0,0,0,0,0,0,0,0.0719,0.071,0.0615,0.0609,0.0602,0.0524,0.0559,0.0487,0.0467,0.0517,0.0463,0.0462,0.041,0.0402,0.0385,0.035,0.0345,0.0337,0.0335,0.0334,0.0333,0,0,0,0,0,0,0,0.0724,0.0714,0.0622,0.0614,0.0606,0.0583,0.0571,0.0545,0.0472,0.0512,0.0506,0.0494,0.0406,0.0388,0.0382,0.0344,0.0337,0.0334,0.0332,0.0331,0.0309,0.0311,0,0,0,0,0,0,0.0739,0.0719,0.0625,0.0618,0.0658,0.0582,0.0568,0.055,0.0472,0.0459,0.0496,0.0491,0.0394,0.0385,0.0377,0.0381,0.0334,0.0331,0.0329,0.0308,0.031,0.0311,0,0,0,0,0,0,0.0742,0.0731,0.0629,0.0667,0.0652,0.0581,0.0562,0.0549,0.0531,0.046,0.0446,0.0491,0.0393,0.0382,0.0361,0.0376,0.0329,0.0326,0.0307,0.0309,0.031,0.039,0,0,0,0,0,0,0.0746,0.0733,0.0736,0.0668,0.0651,0.0616,0.0563,0.0548,0.0526,0.0518,0.0452,0.0439,0.0391,0.0367,0.0358,0.0371,0.0324,0.0305,0.0308,0.031,0.0386,0.0395,0.0402,0,0,0,0,0,0.0751,0.0762,0.0737,0.0726,0.0653,0.0617,0.0607,0.0552,0.0528,0.0529,0.0484,0.0441,0.0376,0.0365,0.0355,0.0367,0.0304,0.0307,0.031,0.0382,0.0393,0.0402,0,0,0,0,0,0,0.0833,0.0752,0.0723,0.0713,0.0673,0.0603,0.0603,0.0565,0.0531,0.0525,0.0457,0.0442,0.043,0.0396,0.0385,0.0371,0.0334,0.0336,0.0393,0.0403,0.0411,0.0419,0.0321,0,0,0,0,0,0.0851,0.0829,0.0759,0.0757,0.0739,0.0675,0.0657,0.0618,0.0573,0.0556,0.0508,0.0466,0.0436,0.0417,0.0386,0.0381,0.0365,0.0384,0.0392,0.0399,0.0401,0.0395,0.0403,0.0321,0.0321,0.0321,0,0,0.0886,0.0839,0.0829,0.0773,0.0737,0.0716,0.0661,0.0641,0.0624,0.0552,0.053,0.0495,0.0443,0.043,0.0422,0.0402,0.042,0.0403,0.0409,0.0407,0.0399,0.0407,0.0414,0.0323,0.0323,0.0322,0,0,0.0938,0.0901,0.0895,0.0861,0.0808,0.0765,0.0764,0.07,0.0673,0.065,0.0596,0.0575,0.0524,0.0489,0.0465,0.0506,0.0465,0.0497,0.0539,0.0535,0.0541,0.0547,0.056,0.0566,0.0499,0.0499,0.0499,0,0.0988,0.0955,0.0897,0.088,0.0856,0.0791,0.0784,0.0753,0.0693,0.0678,0.0656,0.0591,0.0552,0.053,0.054,0.0523,0.0518,0.0504,0.0545,0.055,0.0554,0.0567,0.0572,0.0503,0.0503,0.0502,0.0502,0,0.1019,0.0997,0.0998,0.0942,0.0918,0.0907,0.0846,0.0829,0.0792,0.0752,0.0729,0.0679,0.0636,0.0628,0.0592,0.0601,0.059,0.0558,0.052,0.0567,0.0578,0.0582,0.0509,0.0508,0.0507,0.0506,0,0,0.112,0.1032,0.1034,0.1007,0.0945,0.0926,0.0911,0.0869,0.0856,0.0816,0.0802,0.0761,0.073,0.0703,0.0662,0.0658,0.0693,0.0626,0.0623,0.064,0.0699,0.0724,0.073,0.0666,0.0666,0.0667,0.0704,0,0.1162,0.1133,0.108,0.1067,0.1045,0.0983,0.097,0.093,0.0892,0.0867,0.0824,0.0796,0.0759,0.0742,0.0735,0.069,0.0704,0.0686,0.065,0.065,0.0665,0.0736,0.0761,0.0799,0.0707,0.0708,0.0709,0,0.1207,0.1172,0.1158,0.1096,0.1085,0.1074,0.1032,0.101,0.0962,0.0935,0.0905,0.086,0.084,0.0806,0.0777,0.0767,0.0749,0.0725,0.0725,0.0719,0.0682,0.0731,0.0809,0.0815,0.0715,0.0714,0.0714,0,0.1282,0.1231,0.1215,0.1195,0.1123,0.1117,0.1086,0.1038,0.1017,0.098,0.0965,0.0926,0.0905,0.0875,0.0821,0.0801,0.0798,0.0759,0.0774,0.0776,0.0776,0.0776,0.0851,0.0765,0.0765,0.0765,0.0765,0,0.1334,0.1327,0.1248,0.1239,0.1229,0.1168,0.116,0.1124,0.1081,0.1063,0.1007,0.0991,0.092,0.0896,0.0853,0.0836,0.0826,0.0803,0.0792,0.0808,0.0811,0.0795,0.079,0.0767,0.0766,0.0766,0.0766,0,0.1415,0.1362,0.1341,0.1275,0.1259,0.1254,0.1197,0.1185,0.1144,0.1122,0.1113,0.1048,0.1017,0.096,0.0912,0.0883,0.0874,0.0855,0.089,0.0883,0.0901,0.09,0.0968,0.0973,0.0885,0.0886,0.0887,0,0.1452,0.1445,0.1379,0.1364,0.1336,0.1311,0.1289,0.1229,0.1208,0.1154,0.1149,0.1113,0.1081,0.1033,0.0981,0.0944,0.0923,0.0949,0.0917,0.0933,0.0922,0.0923,0.0922,0.0956,0.0958,0.0959,0.096,0,0.1522,0.1496,0.1467,0.143,0.1406,0.1373,0.1337,0.1327,0.1258,0.1238,0.1206,0.1181,0.1132,0.1097,0.1053,0.102,0.0978,0.097,0.0972,0.0988,0.1008,0.0997,0.091,0.0969,0.0968,0.0967,0.0967,0.0966,0.1581,0.1572,0.1525,0.1495,0.1462,0.143,0.1415,0.1373,0.1345,0.1301,0.1267,0.1237,0.119,0.1126,0.1096,0.1071,0.1052,0.1054,0.1054,0.1055,0.1062,0.1013,0.1063,0.1062,0.1062,0.1062,0.1062,0,0.1648,0.1614,0.1587,0.154,0.1516,0.148,0.1438,0.1421,0.1395,0.1355,0.1325,0.1288,0.1253,0.1199,0.1161,0.1151,0.1131,0.1143,0.1142,0.1136,0.1081,0.1084,0.116,0.116,0.116,0.116,0.116,0.116,0.1679,0.1663,0.1632,0.1598,0.1564,0.1535,0.1514,0.1484,0.1452,0.1413,0.1385,0.135,0.1304,0.1262,0.1229,0.1213,0.1201,0.1219,0.1198,0.1149,0.1139,0.1131,0.1133,0.1217,0.1218,0.1254,0.1255,0.1255]},{"header":{"parameterUnit":"m.s-1","parameterCategory":1,"la1":30.2991,"la2":30.254,"lo1":-89.0895,"lo2":-89.0444,"dy":0.0017,"dx":0.0017,"nx":28,"ny":28,"refTime":"2025-05-18T21:00:00:Z","depth":0,"parameterNumber":3,"parameterNumberName":"V-component_of_WINDS"},"data":[0,0,0,0,0,0,0,0,0,0,0,0,0,0,0,0,0,0,0,0,0,0,0,0,0,0,0,0,0,0,0,0,0,0,0,0,0,0,0,0,0,0,0,0,0,0,0,0,0,0,0,0,0,0,0,0,0,0,6.0559,6.056,0,6.0622,6.0623,6.0624,6.0556,6.0553,6.055,6.0548,6.0609,6.0613,6.0617,0,0,0,0,0,0,0,0,0,0,0,0,0,6.0375,6.0379,6.0559,6.056,6.0561,6.0622,6.0623,6.0624,6.0556,6.0553,6.055,6.0547,6.0608,6.0613,6.0618,0,0,0,0,0,0,0,0,0,0,0,0,0,6.0449,6.038,6.0559,6.0534,6.0533,6.0622,6.0623,6.0624,6.0557,6.0553,6.0549,6.0545,6.0606,6.0612,6.0618,6.0734,0,0,6.0637,6.064,0,0,0,0,0,0,0,0,6.0445,6.0455,6.0537,6.0536,6.0534,6.0577,6.0581,6.0661,6.0558,6.0547,6.0548,6.0543,6.0602,6.0608,6.0628,6.0737,6.074,6.0638,6.0641,6.0644,6.0646,0,0,0,0,0,0,0,6.044,6.0452,6.0584,6.0538,6.0537,6.0519,6.0525,6.0596,6.0596,6.0548,6.0543,6.0552,6.06,6.0623,6.0629,6.0741,6.0637,6.0643,6.0647,6.0649,6.0947,6.0951,0,0,0,0,0,0,6.0438,6.0448,6.0582,6.0586,6.0479,6.0525,6.0532,6.0567,6.0595,6.0595,6.0555,6.0548,6.0614,6.0622,6.0631,6.0768,6.0644,6.065,6.0653,6.0942,6.0948,6.0952,0,0,0,0,0,0,6.0434,6.045,6.0579,6.0516,6.0531,6.0533,6.0573,6.0571,6.0593,6.06,6.0599,6.0578,6.0611,6.0622,6.0709,6.0769,6.0652,6.0658,6.0937,6.0944,6.095,6.1043,0,0,0,0,0,0,6.0429,6.0449,6.0494,6.0518,6.0535,6.0658,6.0577,6.0575,6.0604,6.0596,6.0622,6.0622,6.0609,6.07,6.0715,6.0775,6.0663,6.0932,6.094,6.0948,6.1034,6.1051,6.1066,0,0,0,0,0,6.0423,6.0517,6.0497,6.0513,6.0591,6.0661,6.0671,6.0655,6.0609,6.0654,6.0658,6.0621,6.076,6.071,6.0726,6.0789,6.0928,6.0938,6.0947,6.1027,6.1048,6.1066,0,0,0,0,0,0,6.05,6.052,6.0498,6.0603,6.0631,6.065,6.0705,6.0678,6.0719,6.071,6.0687,6.0693,6.0785,6.0796,6.0739,6.0902,6.0836,6.085,6.0892,6.0912,6.0927,6.0922,6.0668,0,0,0,0,0,6.053,6.0586,6.06,6.0691,6.0707,6.0704,6.0734,6.072,6.0747,6.0759,6.0769,6.0797,6.0846,6.088,6.0926,6.1036,6.1039,6.1086,6.1102,6.1115,6.1127,6.1185,6.1205,6.0984,6.0983,6.0983,0,0,6.0591,6.0609,6.0646,6.0708,6.0728,6.0786,6.0715,6.0779,6.0821,6.0768,6.0851,6.086,6.0888,6.0987,6.1031,6.0998,6.1189,6.1128,6.1138,6.1142,6.1196,6.1217,6.1236,6.099,6.0989,6.0988,0,0,6.0731,6.0751,6.0829,6.0851,6.0883,6.088,6.0899,6.0923,6.0927,6.1009,6.0971,6.102,6.1106,6.1128,6.1151,6.13,6.1267,6.1316,6.1399,6.1455,6.1472,6.1488,6.154,6.1559,6.1327,6.1327,6.1328,0,6.0803,6.089,6.0873,6.094,6.0968,6.0924,6.1001,6.1023,6.1068,6.1088,6.1051,6.1158,6.1175,6.1277,6.1314,6.1334,6.1353,6.1312,6.1472,6.1487,6.1501,6.155,6.157,6.1333,6.1332,6.1332,6.1331,0,6.0976,6.1037,6.1096,6.1141,6.1176,6.1248,6.124,6.1277,6.126,6.1261,6.1345,6.1363,6.1412,6.1435,6.1418,6.1536,6.1514,6.1475,6.1409,6.1528,6.1574,6.1593,6.1341,6.1339,6.1337,6.1336,0,0,6.1167,6.1202,6.1224,6.1244,6.1276,6.1322,6.1391,6.144,6.1472,6.1504,6.1561,6.1635,6.1599,6.1625,6.161,6.166,6.1776,6.1614,6.1615,6.1643,6.1904,6.1933,6.1955,6.1754,6.1758,6.1761,6.1902,0,6.1308,6.143,6.1416,6.1532,6.1588,6.1546,6.1607,6.1632,6.1635,6.1681,6.1683,6.1736,6.1685,6.17,6.1748,6.1752,6.1828,6.1741,6.1806,6.1808,6.1799,6.198,6.201,6.2142,6.192,6.1923,6.1925,0,6.1488,6.1528,6.165,6.1673,6.1696,6.1751,6.1794,6.1839,6.1866,6.1865,6.1894,6.187,6.1939,6.1872,6.1965,6.1907,6.1933,6.1939,6.1943,6.1948,6.1873,6.1988,6.2184,6.2204,6.1953,6.1951,6.1949,0,6.1614,6.1698,6.1782,6.18,6.1829,6.1869,6.1882,6.1906,6.1936,6.1974,6.1993,6.2037,6.2062,6.2096,6.2084,6.2037,6.218,6.2113,6.2179,6.218,6.2211,6.2209,6.2413,6.2229,6.2229,6.2228,6.2228,0,6.1772,6.1848,6.1839,6.189,6.1974,6.1957,6.204,6.2048,6.2069,6.2121,6.2087,6.2136,6.2118,6.2165,6.2157,6.2235,6.2246,6.2246,6.2242,6.2248,6.2248,6.2264,6.2254,6.2233,6.2232,6.2231,6.223,0,6.1927,6.1924,6.2012,6.2033,6.204,6.21,6.2117,6.2165,6.2165,6.223,6.2244,6.2244,6.2298,6.229,6.235,6.2344,6.2441,6.2427,6.2432,6.2428,6.2495,6.2489,6.2716,6.2744,6.2543,6.2545,6.2547,0,6.2028,6.2085,6.2112,6.2145,6.2162,6.2215,6.2245,6.223,6.2263,6.2299,6.2342,6.2393,6.2433,6.252,6.2525,6.257,6.2556,6.2632,6.2562,6.2566,6.2556,6.2552,6.2558,6.2646,6.2648,6.265,6.2652,0,6.2207,6.2202,6.2248,6.2294,6.2332,6.2367,6.2399,6.2427,6.2415,6.2453,6.2508,6.254,6.2601,6.2651,6.2693,6.2706,6.2677,6.2674,6.2691,6.2698,6.2698,6.2698,6.2469,6.2668,6.2667,6.2665,6.2665,6.2664,6.2337,6.2386,6.2413,6.2465,6.2487,6.2517,6.2563,6.2569,6.2615,6.2665,6.2653,6.2715,6.274,6.2794,6.2811,6.2858,6.283,6.2856,6.2862,6.2869,6.2876,6.2692,6.2866,6.2865,6.2865,6.2864,6.2864,0,6.2513,6.2528,6.2577,6.2622,6.2663,6.2634,6.2667,6.2702,6.2758,6.2784,6.2824,6.2887,6.2936,6.2945,6.2991,6.3027,6.3015,6.3039,6.3036,6.3039,6.2899,6.2879,6.3049,6.3049,6.3049,6.3049,6.3049,6.3048,6.261,6.2691,6.269,6.2781,6.2795,6.2857,6.2878,6.2906,6.2926,6.2999,6.3039,6.3045,6.3064,6.3111,6.3154,6.3155,6.3173,6.3203,6.3199,6.3068,6.3049,6.3032,6.3012,6.3207,6.3208,6.3335,6.3336,6.3337]}]]